CSN2107 ZPJH-ZGCJ

Flight info

Callsign CSN2107
Flight time N/A
Altitude 33100
Route BIDRU A581 ELASU W147 IDPUG W225 DJT W137 NODIB X91 P651 H166 P661
Aircraft B737/M-SDE2E3FGHIRWXY/LB1

Departure

Time N/A
Airport Xishuangbanna Gasa International Airport (ZPJH)

Arrival

Time 2026-04-29 16:17
Airport Huaihua Zhijiang Airport (ZGCJ)
Time Latitude Longitude Altitude Speed Heading
2026-04-29 15:44 26.18914 105.82577 33312 ft 519 kts 76°
2026-04-29 15:44 26.20595 105.90388 33313 ft 518 kts 76°
2026-04-29 15:45 26.22271 105.98192 33320 ft 518 kts 76°
2026-04-29 15:45 26.23941 106.05997 33323 ft 518 kts 75°
2026-04-29 15:46 26.25597 106.13750 33333 ft 518 kts 75°
2026-04-29 15:46 26.27258 106.21554 33322 ft 518 kts 75°
2026-04-29 15:47 26.28917 106.29368 33324 ft 518 kts 75°
2026-04-29 15:47 26.30721 106.37137 33313 ft 517 kts 71°
2026-04-29 15:48 26.32898 106.44716 33323 ft 517 kts 70°
2026-04-29 15:48 26.35126 106.52341 33327 ft 517 kts 70°
2026-04-29 15:49 26.37298 106.59990 33347 ft 518 kts 71°
2026-04-29 15:49 26.39083 106.66357 33351 ft 518 kts 71°
2026-04-29 15:50 26.41580 106.75275 33361 ft 518 kts 71°
2026-04-29 15:50 26.43821 106.82912 33364 ft 518 kts 68°
2026-04-29 15:51 26.46378 106.90418 33342 ft 518 kts 67°
2026-04-29 15:51 26.48866 106.97967 33333 ft 518 kts 68°
2026-04-29 15:52 26.51346 107.05529 33336 ft 519 kts 68°
2026-04-29 15:52 26.53817 107.13048 33327 ft 519 kts 68°
2026-04-29 15:53 26.56301 107.20624 33338 ft 520 kts 68°
2026-04-29 15:53 26.58782 107.28210 33341 ft 520 kts 68°
2026-04-29 15:54 26.61253 107.35815 33334 ft 521 kts 68°
2026-04-29 15:54 26.63702 107.43378 33331 ft 521 kts 68°
2026-04-29 15:55 26.66162 107.50987 33333 ft 520 kts 68°
2026-04-29 15:55 26.68620 107.58600 33338 ft 521 kts 67°
2026-04-29 15:56 26.71075 107.66224 33336 ft 521 kts 67°
2026-04-29 15:56 26.73117 107.72573 33335 ft 522 kts 67°
2026-04-29 15:57 26.75971 107.81461 33329 ft 523 kts 67°
2026-04-29 15:57 26.78432 107.89130 33337 ft 524 kts 67°
2026-04-29 15:58 26.80893 107.96815 33338 ft 525 kts 67°
2026-04-29 15:58 26.82921 108.03168 33002 ft 516 kts 67°
2026-04-29 15:58 26.84124 108.06943 32379 ft 513 kts 67°
2026-04-29 15:59 26.85323 108.10708 31572 ft 515 kts 66°
2026-04-29 15:59 26.86531 108.14497 30736 ft 518 kts 66°
2026-04-29 15:59 26.87744 108.18304 29853 ft 519 kts 66°
2026-04-29 15:59 26.88940 108.22067 28836 ft 521 kts 65°
2026-04-29 16:00 26.90156 108.25896 27733 ft 523 kts 66°
2026-04-29 16:00 26.91378 108.29746 26740 ft 525 kts 66°
2026-04-29 16:00 26.92588 108.33574 26075 ft 517 kts 67°
2026-04-29 16:00 26.93777 108.37343 25495 ft 509 kts 67°
2026-04-29 16:01 26.94948 108.41058 24842 ft 503 kts 67°
2026-04-29 16:01 26.96482 108.45917 23946 ft 497 kts 68°
2026-04-29 16:01 26.97261 108.48385 23424 ft 494 kts 68°
2026-04-29 16:01 26.98762 108.53151 22517 ft 485 kts 68°
2026-04-29 16:02 26.99500 108.55496 22143 ft 479 kts 68°
2026-04-29 16:02 27.00597 108.58986 21538 ft 471 kts 68°
2026-04-29 16:02 27.01678 108.62428 20930 ft 464 kts 68°
2026-04-29 16:02 27.02742 108.65819 20334 ft 458 kts 68°
2026-04-29 16:03 27.03792 108.69164 19742 ft 451 kts 68°
2026-04-29 16:03 27.04824 108.72458 19161 ft 444 kts 68°
2026-04-29 16:03 27.05839 108.75703 18602 ft 438 kts 68°
2026-04-29 16:03 27.06839 108.78903 17976 ft 432 kts 68°
2026-04-29 16:04 27.07823 108.82056 17337 ft 426 kts 68°
2026-04-29 16:04 27.08784 108.85136 16686 ft 421 kts 68°
2026-04-29 16:04 27.09746 108.88224 16032 ft 417 kts 68°
2026-04-29 16:04 27.10697 108.91276 15392 ft 412 kts 68°
2026-04-29 16:05 27.11636 108.94295 14794 ft 407 kts 68°
2026-04-29 16:05 27.12565 108.97284 14185 ft 403 kts 69°
2026-04-29 16:05 27.13482 109.00235 13545 ft 399 kts 69°
2026-04-29 16:05 27.14389 109.03156 12939 ft 393 kts 69°
2026-04-29 16:06 27.15267 109.05990 12832 ft 375 kts 69°
2026-04-29 16:06 27.16103 109.08693 12704 ft 358 kts 69°
2026-04-29 16:06 27.16891 109.11244 12606 ft 343 kts 69°
2026-04-29 16:06 27.17658 109.13724 12520 ft 329 kts 69°
2026-04-29 16:07 27.18394 109.16104 12429 ft 316 kts 69°
2026-04-29 16:07 27.19099 109.18384 12341 ft 304 kts 69°
2026-04-29 16:07 27.19783 109.20597 12138 ft 297 kts 69°
2026-04-29 16:07 27.20457 109.22775 11820 ft 294 kts 69°
2026-04-29 16:08 27.21126 109.24941 11489 ft 292 kts 69°
2026-04-29 16:08 27.21787 109.27086 11164 ft 289 kts 69°
2026-04-29 16:08 27.22442 109.29214 10863 ft 287 kts 69°
2026-04-29 16:08 27.23092 109.31324 10560 ft 285 kts 69°
2026-04-29 16:09 27.23728 109.33389 10244 ft 282 kts 69°
2026-04-29 16:09 27.24366 109.35466 9921 ft 280 kts 69°
2026-04-29 16:09 27.24998 109.37521 9599 ft 276 kts 69°
2026-04-29 16:09 27.25617 109.39542 9149 ft 273 kts 71°
2026-04-29 16:10 27.25815 109.41644 8657 ft 274 kts 98°
2026-04-29 16:10 27.25211 109.43653 8224 ft 271 kts 115°
2026-04-29 16:10 27.24359 109.45530 7805 ft 268 kts 116°
2026-04-29 16:10 27.23512 109.47384 7371 ft 265 kts 115°
2026-04-29 16:11 27.22755 109.49255 6942 ft 261 kts 102°
2026-04-29 16:11 27.22805 109.51205 6487 ft 254 kts 67°
2026-04-29 16:11 27.23835 109.52763 6022 ft 250 kts 42°
2026-04-29 16:11 27.25133 109.54057 5467 ft 250 kts 42°
2026-04-29 16:12 27.26438 109.55359 5056 ft 249 kts 41°
2026-04-29 16:12 27.27767 109.56577 4738 ft 243 kts 39°
2026-04-29 16:12 27.29107 109.57717 4400 ft 240 kts 38°
2026-04-29 16:12 27.30427 109.58820 4075 ft 232 kts 38°
2026-04-29 16:13 27.31692 109.59876 3820 ft 219 kts 38°
2026-04-29 16:13 27.32865 109.60859 3521 ft 200 kts 38°
2026-04-29 16:13 27.33939 109.61758 3259 ft 189 kts 38°
2026-04-29 16:13 27.34973 109.62628 2983 ft 183 kts 38°
2026-04-29 16:14 27.35962 109.63459 2777 ft 173 kts 37°
2026-04-29 16:14 27.36900 109.64241 2527 ft 160 kts 37°
2026-04-29 16:14 27.37741 109.64947 2342 ft 145 kts 37°
2026-04-29 16:14 27.38537 109.65615 2153 ft 142 kts 36°
2026-04-29 16:15 27.39335 109.66286 1940 ft 143 kts 36°
2026-04-29 16:15 27.40132 109.66953 1717 ft 142 kts 36°
2026-04-29 16:15 27.40914 109.67605 1513 ft 142 kts 36°
2026-04-29 16:15 27.41718 109.68283 1347 ft 145 kts 36°
2026-04-29 16:16 27.42536 109.68965 1163 ft 146 kts 36°
2026-04-29 16:16 27.43353 109.69653 963 ft 147 kts 36°
2026-04-29 16:16 27.44164 109.70329 855 ft 136 kts 37°
2026-04-29 16:16 27.44744 109.70816 851 ft 72 kts 37°
2026-04-29 16:17 27.45002 109.71032 852 ft 35 kts 37°
2026-04-29 16:17 27.45170 109.71173 852 ft 29 kts 37°
2026-04-29 16:17 27.45327 109.71304 840 ft 27 kts 37°
2026-04-29 16:17 27.45422 109.71383 849 ft 9 kts 36°
2026-04-29 16:18 27.45476 109.71408 845 ft 8 kts 11°
2026-04-29 16:18 27.45531 109.71429 844 ft 8 kts 40°
2026-04-29 16:18 27.45522 109.71471 842 ft 6 kts 161°
2026-04-29 16:18 27.45488 109.71443 845 ft 6 kts 230°
2026-04-29 16:19 27.45454 109.71409 842 ft 8 kts 216°
2026-04-29 16:19 27.45394 109.71360 849 ft 13 kts 217°
2026-04-29 16:19 27.45308 109.71288 852 ft 17 kts 216°
2026-04-29 16:19 27.45200 109.71197 844 ft 22 kts 217°
2026-04-29 16:20 27.45063 109.71083 854 ft 27 kts 217°
2026-04-29 16:20 27.44904 109.70950 840 ft 29 kts 217°
2026-04-29 16:20 27.44747 109.70818 851 ft 27 kts 217°
2026-04-29 16:20 27.44599 109.70694 842 ft 26 kts 217°
2026-04-29 16:21 27.44461 109.70579 855 ft 24 kts 217°
2026-04-29 16:21 27.44354 109.70489 856 ft 10 kts 217°
2026-04-29 16:21 27.44334 109.70443 857 ft 7 kts 278°
2026-04-29 16:21 27.44359 109.70399 852 ft 7 kts 307°
2026-04-29 16:22 27.44384 109.70361 855 ft 6 kts 307°
2026-04-29 16:22 27.44400 109.70338 855 ft 0 kts 306°
2026-04-29 16:23 27.44403 109.70333 850 ft 2 kts 306°
2026-04-29 16:23 27.44418 109.70309 849 ft 5 kts 304°
2026-04-29 16:23 27.44434 109.70269 852 ft 6 kts 300°
2026-04-29 16:24 27.44457 109.70235 848 ft 5 kts 307°
2026-04-29 16:24 27.44466 109.70222 858 ft 1 kts 307°
2026-04-29 16:24 27.44469 109.70216 852 ft 1 kts 307°
2026-04-29 16:24 27.44473 109.70211 848 ft 1 kts 307°
2026-04-29 16:25 27.44473 109.70210 859 ft 0 kts 307°